1333670427629,0.839228
1333670487629,0.846986
1333670547629,0.845950
1333670607629,0.834799
1333670667629,0.838790
1333670727629,0.830818
1333670787629,0.831592
1333670847629,0.826948
1333670907629,0.819154
1333670967629,0.823447
1333671027629,0.814778
1333671087629,0.821446
1333671147629,0.816396
1333671207629,0.815888
1333671267629,0.814244
1333671327629,0.803490
1333671387629,0.805865
1333671447629,0.806626
1333671507629,0.807496
1333671567629,0.802517
1333671627629,0.800181
1333671687629,0.791754
1333671747629,0.797202
1333671807629,0.795119
1333671867629,0.800998
1333671927629,0.797623
1333671987629,0.796344
1333672047629,0.793832
1333672107629,0.794336
1333672167629,0.795248
1333672227629,0.794503
1333672287629,0.794354
1333672347629,0.795192
1333672407629,0.799207
1333672467629,0.792906
1333672527629,0.788482
1333672587629,0.785495
1333672647629,0.788372
1333672707629,0.788128
1333672767629,0.787853
1333672827629,0.795718
1333672887629,0.796066
1333672947629,0.789579
1333673007629,0.788862
1333673067629,0.787143
1333673127629,0.788937
1333673187629,0.784641
1333673247629,0.789292
1333673307629,0.791722
1333673367629,0.789682
1333673427629,0.796693
1333673487629,0.801334
1333673547629,0.788629
1333673607629,0.799459
1333673667629,0.796698
1333673727629,0.797810
1333673787629,0.797791
1333673847629,0.795965
1333673907629,0.802186
1333673967629,0.797444
1333674027641,0.798518
1333674087641,0.808081
1333674147641,0.805349
1333674207641,0.802421
1333674267641,0.801001
1333674327641,0.793860
1333674387641,0.801349
1333674447641,0.799878
1333674507641,0.800441
1333674567641,0.801164
1333674627641,0.797973
1333674687641,0.809552
1333674747641,0.805840
1333674807641,0.810923
1333674867641,0.804242
1333674927641,0.800434
1333674987641,0.807024
1333675047641,0.809940
1333675107641,0.806375
1333675167641,0.801452
1333675227641,0.798960
1333675287641,0.804109
1333675347641,0.803540
1333675407641,0.801540
1333675467641,0.806068
1333675527641,0.800926
1333675587641,0.799677
1333675647641,0.797859
1333675707641,0.797023
1333675767641,0.791778
1333675827641,0.793512
1333675887641,0.794497
1333675947641,0.798734
1333676007641,0.794912
1333676067641,0.790503
1333676127641,0.796508
1333676187641,0.796269
1333676247641,0.790462
1333676307641,0.798779
1333676367641,0.793657
1333676427641,0.796274
1333676487641,0.788874
1333676547641,0.789543
1333676607641,0.790995
1333676667641,0.781345
1333676727641,0.786657
1333676787641,0.785904
1333676847641,0.779485
1333676907641,0.780778
1333676967641,0.792891
1333677027641,0.784104
1333677087641,0.782284
1333677147641,0.784979
1333677207641,0.780472
1333677267641,0.774831
1333677327641,0.777716
1333677387641,0.782447
1333677447641,0.783209
1333677507641,0.783748
1333677567641,0.784793
1333677627652,0.775192
1333677687652,0.782758
1333677747652,0.780051
1333677807652,0.775762
1333677867652,0.778096
1333677927652,0.783270
1333677987652,0.779411
1333678047652,0.777943
1333678107652,0.776792
1333678167652,0.767864
1333678227652,0.777054
1333678287652,0.775170
1333678347652,0.776588
1333678407652,0.774948
1333678467652,0.780689
1333678527652,0.773874
1333678587652,0.770942
1333678647652,0.775807
1333678707652,0.777362
1333678767652,0.777786
1333678827652,0.776742
1333678887652,0.775194
1333678947652,0.775433
1333679007652,0.779191
1333679067652,0.771426
1333679127652,0.771268
1333679187652,0.773030
1333679247652,0.766126
1333679307652,0.769910
1333679367652,0.777158
1333679427652,0.774370
1333679487652,0.768625
1333679547652,0.762687
1333679607652,0.767291
1333679667652,0.769544
1333679727652,0.768937
1333679787652,0.769451
1333679847652,0.770921
1333679907652,0.765663
1333679967652,0.767155
1333680027652,0.774357
1333680087652,0.764704
1333680147652,0.767075
1333680207652,0.771696
1333680267652,0.766264
1333680327652,0.771694
1333680387652,0.766865
1333680447652,0.769250
1333680507652,0.763757
1333680567652,0.768863
1333680627652,0.759986
1333680687652,0.763494
1333680747652,0.773068
1333680807652,0.767526
1333680867652,0.767429
1333680927652,0.773311
1333680987652,0.764302
1333681047652,0.768102
1333681107652,0.764207
1333681167652,0.776813
1333681227664,0.770939
1333681287664,0.771308
1333681347664,0.766943
1333681407664,0.766944
1333681467664,0.764841
1333681527664,0.769534
1333681587664,0.768214
1333681647664,0.767753
1333681707664,0.765673
1333681767664,0.768358
1333681827664,0.774260
1333681887664,0.771680
1333681947664,0.762250
1333682007664,0.763123
1333682067664,0.769811
1333682127664,0.764977
1333682187664,0.771182
1333682247664,0.768530
1333682307664,0.766488
1333682367664,0.766967
1333682427664,0.757292
1333682487664,0.766710
1333682547664,0.764700
1333682607664,0.770403
1333682667664,0.762172
1333682727664,0.770077
1333682787664,0.762383
1333682847664,0.763866
1333682907664,0.761261
1333682967664,0.772289
1333683027664,0.762768
1333683087664,0.766041
1333683147664,0.765716
1333683207664,0.766181
1333683267664,0.770311
1333683327664,0.765853
1333683387664,0.767251
1333683447664,0.758580
1333683507664,0.754075
1333683567664,0.761158
1333683627664,0.764981
1333683687664,0.761632
1333683747664,0.762713
1333683807664,0.766345
1333683867664,0.761078
1333683927664,0.775037
1333683987664,0.767850
1333684047664,0.766015
1333684107664,0.756622
1333684167664,0.767581
1333684227664,0.765968
1333684287664,0.766553
1333684347664,0.761915
1333684407664,0.766346
1333684467664,0.762289
1333684527664,0.768435
1333684587664,0.771198
1333684647664,0.768411
1333684707664,0.763803
1333684767664,0.771996
1333684827675,0.770294
1333684887675,0.776920
1333684947675,0.779285
1333685007675,0.777201
1333685067675,0.784615
1333685127675,0.787533
1333685187675,0.786535
1333685247675,0.779583
1333685307675,0.779942
1333685367675,0.787218
1333685427675,0.786927
1333685487675,0.790728
1333685547675,0.786300
1333685607675,0.788600
1333685667675,0.791718
1333685727675,0.786904
1333685787675,0.790965
1333685847675,0.787604
1333685907675,0.787340
1333685967675,0.784793
1333686027675,0.783782
1333686087675,0.789519
1333686147675,0.784389
1333686207675,0.785136
1333686267675,0.784010
1333686327675,0.771615
1333686387675,0.781851
1333686447675,0.780498
1333686507675,0.778253
1333686567675,0.777366
1333686627675,0.781466
1333686687675,0.780765
1333686747675,0.781811
1333686807675,0.781812
1333686867675,0.783636
1333686927675,0.780237
1333686987675,0.779114
1333687047675,0.779843
1333687107675,0.787476
1333687167675,0.771056
1333687227675,0.770540
1333687287675,0.774818
1333687347675,0.776540
1333687407675,0.775500
1333687467675,0.777307
1333687527675,0.769229
1333687587675,0.779539
1333687647675,0.768778
1333687707675,0.775157
1333687767675,0.769357
1333687827675,0.768953
1333687887675,0.773532
1333687947675,0.770830
1333688007675,0.769983
1333688067675,0.767968
1333688127675,0.766902
1333688187675,0.778138
1333688247675,0.770433
1333688307675,0.772169
1333688367675,0.769372
1333688427687,0.775143
1333688487687,0.769938
1333688547687,0.762239
1333688607687,0.760705
1333688667687,0.778771
1333688727687,0.767244
1333688787687,0.777587
1333688847687,0.766278
1333688907687,0.773919
1333688967687,0.766925
1333689027687,0.771197
1333689087687,0.766843
1333689147687,0.764464
1333689207687,0.759943
1333689267687,0.762353
1333689327687,0.771755
1333689387687,0.769723
1333689447687,0.774549
1333689507687,0.763604
1333689567687,0.763429
1333689627687,0.774279
1333689687687,0.765221
1333689747687,0.765258
1333689807687,0.763952
1333689867687,0.765174
1333689927687,0.767616
1333689987687,0.762381
1333690047687,0.765503
1333690107687,0.767247
1333690167687,0.766569
1333690227687,0.759439
1333690287687,0.760942
1333690347687,0.763307
1333690407687,0.766032
1333690467687,0.767763
1333690527687,0.766459
1333690587687,0.762166
1333690647687,0.761058
1333690707687,0.763924
1333690767687,0.767784
1333690827687,0.765188
1333690887687,0.760834
1333690947687,0.761063
1333691007687,0.768869
1333691067687,0.766525
1333691127687,0.759923
1333691187687,0.762251
1333691247687,0.768310
1333691307687,0.763934
1333691367687,0.763720
1333691427687,0.765266
1333691487687,0.762559
1333691547687,0.763537
1333691607687,0.765391
1333691667687,0.757768
1333691727687,0.760063
1333691787687,0.764409
1333691847687,0.757005
1333691907687,0.764844
1333691967687,0.757804
1333692027698,0.763354
1333692087698,0.757683
1333692147698,0.758870
1333692207698,0.761525
1333692267698,0.762109
1333692327698,0.760875
1333692387698,0.761951
1333692447698,0.769538
1333692507698,0.759596
1333692567698,0.766230
1333692627698,0.764703
1333692687698,0.759062
1333692747698,0.764862
1333692807698,0.761625
1333692867698,0.761764
1333692927698,0.765496
1333692987698,0.763347
1333693047698,0.764504
1333693107698,0.761004
1333693167698,0.768328
1333693227698,0.772387
1333693287698,0.766768
1333693347698,0.775661
1333693407698,0.770965
1333693467698,0.772398
1333693527698,0.769930
1333693587698,0.772891
1333693647698,0.767895
1333693707698,0.779493
1333693767698,0.777463
1333693827698,0.768047
1333693887698,0.768477
1333693947698,0.773290
1333694007698,0.774795
1333694067698,0.775266
1333694127698,0.778354
1333694187698,0.770120
1333694247698,0.772190
1333694307698,0.772199
1333694367698,0.766824
1333694427698,0.768277
1333694487698,0.776277
1333694547698,0.773383
1333694607698,0.770151
1333694667698,0.774398
1333694727698,0.763232
1333694787698,0.765795
1333694847698,0.761216
1333694907698,0.771662
1333694967698,0.759584
1333695027698,0.763889
1333695087698,0.763462
1333695147698,0.770920
1333695207698,0.765863
1333695267698,0.766297
1333695327698,0.768208
1333695387698,0.771511
1333695447698,0.765831
1333695507698,0.769334
1333695567698,0.768151
1333695627709,0.772113
1333695687709,0.767906
1333695747709,0.766664
1333695807709,0.762365
1333695867709,0.764019
1333695927709,0.763334
1333695987709,0.761432
1333696047709,0.762977
1333696107709,0.766568
1333696167709,0.771337
1333696227709,0.762941
1333696287709,0.761508
1333696347709,0.769645
1333696407709,0.764507
1333696467709,0.763483
1333696527709,0.762137
1333696587709,0.758185
1333696647709,0.770439
1333696707709,0.763276
1333696767709,0.757957
1333696827709,0.763072
1333696887709,0.759825
1333696947709,0.761703
1333697007709,0.758792
1333697067709,0.762512
1333697127709,0.756782
1333697187709,0.761998
1333697247709,0.753057
1333697307709,0.756908
1333697367709,0.760820
1333697427709,0.750160
1333697487709,0.757487
1333697547709,0.765819
1333697607709,0.763904
1333697667709,0.756048
1333697727709,0.760588
1333697787709,0.762570
1333697847709,0.758528
1333697907709,0.759986
1333697967709,0.756223
1333698027709,0.757099
1333698087709,0.763595
1333698147709,0.760406
1333698207709,0.765254
1333698267709,0.771192
1333698327709,0.759394
1333698387709,0.767564
1333698447709,0.769720
1333698507709,0.768718
1333698567709,0.768414
1333698627709,0.764237
1333698687709,0.769171
1333698747709,0.769673
1333698807709,0.770670
1333698867709,0.764685
1333698927709,0.762434
1333698987709,0.758972
1333699047709,0.753202
1333699107709,0.766818
1333699167709,0.766545
1333699227721,0.758295
1333699287721,0.764753
1333699347721,0.768872
1333699407721,0.760461
1333699467721,0.765743
1333699527721,0.766580
1333699587721,0.760635
1333699647721,0.763517
1333699707721,0.760901
1333699767721,0.767340
1333699827721,0.762461
1333699887721,0.758300
1333699947721,0.763565
1333700007721,0.757540
1333700067721,0.756622
1333700127721,0.761659
1333700187721,0.762322
1333700247721,0.754162
1333700307721,0.760083
1333700367721,0.765002
1333700427721,0.763546
1333700487721,0.760606
1333700547721,0.756927
1333700607721,0.760286
1333700667721,0.766489
1333700727721,0.758974
1333700787721,0.756502
1333700847721,0.760028
1333700907721,0.764547
1333700967721,0.759366
1333701027721,0.761389
1333701087721,0.761804
1333701147721,0.754479
1333701207721,0.761722
1333701267721,0.758146
1333701327721,0.767754
1333701387721,0.758772
1333701447721,0.765547
1333701507721,0.762117
1333701567721,0.769223
1333701627721,0.762972
1333701687721,0.764814
1333701747721,0.764032
1333701807721,0.760609
1333701867721,0.758358
1333701927721,0.764525
1333701987721,0.761801
1333702047721,0.763466
1333702107721,0.755756
1333702167721,0.757861
1333702227721,0.763767
1333702287721,0.759473
1333702347721,0.761427
1333702407721,0.761542
1333702467721,0.757699
1333702527721,0.758393
1333702587721,0.760919
1333702647721,0.760528
1333702707721,0.761589
1333702767721,0.759317
1333702827732,0.765527
1333702887732,0.757934
1333702947732,0.761298
1333703007732,0.761253
1333703067732,0.763976
1333703127732,0.763917
1333703187732,0.762425
1333703247732,0.762765
1333703307732,0.755612
1333703367732,0.768129
1333703427732,0.756460
1333703487732,0.759144
1333704027732,0.762829
1333704087732,0.758936
1333704147732,0.761240
1333704207732,0.766299
1333704267732,0.760447
1333704327732,0.764907
1333704387732,0.765168
1333704447732,0.758358
1333704507732,0.754931
1333704567732,0.757568
1333704627732,0.764062
1333704687732,0.759968
1333704747732,0.765740
1333704807732,0.762321
1333704867732,0.758652
1333704927732,0.763184
1333704987732,0.759525
1333705047732,0.765394
1333705107732,0.761524
1333705167732,0.759057
1333705227732,0.758331
1333705287732,0.764063
1333705347732,0.757863
1333705407732,0.762530
1333705467732,0.759820
1333705527732,0.759587
1333705587732,0.767979
1333705647732,0.764790
1333705707732,0.756015
1333705767732,0.758117
1333705827732,0.756303
1333705887732,0.763571
1333705947732,0.758655
1333706007732,0.763367
1333706067732,0.759121
1333706127732,0.757119
1333706187732,0.753859
1333706247732,0.757755
1333706307732,0.767189
1333706367732,0.760732
1333706427743,0.759351
1333706487743,0.760028
1333706547743,0.758442
1333706607743,0.758048
1333706667743,0.759642
1333706727743,0.760085
1333706787743,0.763259
1333706847743,0.752217
1333706907743,0.760775
1333706967743,0.760716
1333707027743,0.761345
1333707087743,0.756157
1333707147743,0.759965
1333707207743,0.755770
1333707267743,0.762143
1333707327743,0.764062
1333707387743,0.767472
1333707447743,0.763526
1333707507743,0.756263
1333707567743,0.754427
1333707627743,0.759960
1333707687743,0.756989
1333707747743,0.746826
1333707807743,0.759530
1333707867743,0.756328
1333707927743,0.758624
1333707987743,0.745182
1333708047743,0.758534
1333708107743,0.753922
1333708167743,0.763047
1333708227743,0.750046
1333708287743,0.758191
1333708347743,0.754906
1333708407743,0.751566
1333708467743,0.759671
1333708527743,0.755156
1333708587743,0.760868
1333708647743,0.749154
1333708707743,0.754189
1333708767743,0.752072
1333708827743,0.752191
1333708887743,0.751719
1333708947743,0.756185
1333709007743,0.757016
1333709067743,0.752889
1333709127743,0.755692
1333709187743,0.752059
1333709247743,0.756244
1333709307743,0.749112
1333709367743,0.754448
1333709427743,0.745780
1333709487743,0.753291
1333709547743,0.759237
1333709607743,0.755251
1333709667743,0.753019
1333709727743,0.756322
1333709787743,0.750478
1333709847743,0.755446
1333709907743,0.747545
1333709967743,0.745904
1333710027755,0.750461
1333710087755,0.749907
1333710147755,0.755030
1333710207755,0.752744
1333710267755,0.753394
1333710327755,0.758781
1333710387755,0.748561
1333710447755,0.752288
1333710507755,0.757682
1333710567755,0.749199
1333710627755,0.750803
1333710687755,0.754669
1333710747755,0.759187
1333710807755,0.750168
1333710867755,0.754577
1333710927755,0.752095
1333710987755,0.752307
1333711047755,0.757047
1333711107755,0.755253
1333711167755,0.755861
1333711227755,0.754179
1333711287755,0.753135
1333711347755,0.755836
1333711407755,0.745843
1333711467755,0.748605
1333711527755,0.757365
1333711587755,0.756275
1333711647755,0.752841
1333711707755,0.757265
1333711767755,0.754783
1333711827755,0.754755
1333711887755,0.751886
1333711947755,0.753377
1333712007755,0.762034
1333712067755,0.755501
1333712127755,0.758264
1333712187755,0.752340
1333712247755,0.752160
1333712307755,0.751360
1333712367755,0.756802
1333712427755,0.758973
1333712487755,0.755158
1333712547755,0.752562
1333712607755,0.752856
1333712667755,0.752155
1333712727755,0.751118
1333712787755,0.752952
1333712847755,0.754301
1333712907755,0.753270
1333712967755,0.756995
1333713027755,0.748244
1333713087755,0.757316
1333713147755,0.745037
1333713207755,0.753882
1333713267755,0.757179
1333713327755,0.753193
1333713387755,0.748266
1333713447755,0.751413
1333713507755,0.749345
1333713567755,0.746522
1333713627766,0.751514
1333713687766,0.755447
1333713747766,0.750957
1333713807766,0.750150
1333713867766,0.754839
1333713927766,0.745950
1333713987766,0.747556
1333714047766,0.751983
1333714107766,0.742952
1333714167766,0.751049
1333714227766,0.745870
1333714287766,0.742878
1333714347766,0.750580
1333714407766,0.749061
1333714467766,0.758196
1333714527766,0.747935
1333714587766,0.746156
1333714647766,0.753225
1333714707766,0.752883
1333714767766,0.743989
1333714827766,0.754808
1333714887766,0.746133
1333714947766,0.747545
1333715007766,0.746630
1333715067766,0.746464
1333715127766,0.751941
1333715187766,0.748313
1333715247766,0.746868
1333715307766,0.745647
1333715367766,0.754488
1333715427766,0.750840
1333715487766,0.752914
1333715547766,0.755168
1333715607766,0.756802
1333715667766,0.749859
1333715727766,0.752022
1333715787766,0.747633
1333715847766,0.748773
1333715907766,0.752241
1333715967766,0.746189
1333716027766,0.754818
1333716087766,0.750341
1333716147766,0.747247
1333716207766,0.756715
1333716267766,0.743259
1333716327766,0.752271
1333716387766,0.749204
1333716447766,0.740659
1333716507766,0.747012
1333716567766,0.752258
1333716627766,0.743769
1333716687766,0.745459
1333716747766,0.753141
1333716807766,0.758106
1333716867766,0.755721
1333716927766,0.743747
1333716987766,0.751512
1333717047766,0.756737
1333717107766,0.746131
1333717167766,0.750396
1333717227777,0.751255
1333717287777,0.758008
1333717347777,0.751925
1333717407777,0.747269
1333717467777,0.754419
1333717527777,0.754780
1333717587777,0.750444
1333717647777,0.750917
1333717707777,0.756504
1333717767777,0.748292
1333717827777,0.754378
1333717887777,0.747325
1333717947777,0.746940
1333718007777,0.748956
1333718067777,0.749353
1333718127777,0.752332
1333718187777,0.753704
1333718247777,0.749464
1333718307777,0.746290
1333718367777,0.751010
1333718427777,0.751576
1333718487777,0.749060
1333718547777,0.749326
1333718607777,0.753123
1333718667777,0.753063
1333718727777,0.756223
1333718787777,0.746258
1333718847777,0.745954
1333718907777,0.747375
1333718967777,0.745668
1333719027777,0.752232
1333719087777,0.744381
1333719147777,0.748505
1333719207777,0.750178
1333719267777,0.750037
1333719327777,0.749657
1333719387777,0.748118
1333719447777,0.751526
1333719507777,0.748679
1333719567777,0.744865
1333719627777,0.747655
1333719687777,0.742774
1333719747777,0.750644
1333719807777,0.754559
1333719867777,0.750459
1333719927777,0.751069
1333719987777,0.750674
1333720047777,0.743311
1333720107777,0.751392
1333720167777,0.743115
1333720227777,0.750062
1333720287777,0.742777
1333720347777,0.753621
1333720407777,0.741001
1333720467777,0.755772
1333720527777,0.741807
1333720587777,0.747061
1333720647777,0.745655
1333720707777,0.749852
1333720767777,0.744265
1333720827788,0.750371
1333720887788,0.746441
1333720947788,0.755932
1333721007788,0.748748
1333721067788,0.747613
1333721127788,0.749309
1333721187788,0.745819
1333721247788,0.748804
1333721307788,0.746309
1333721367788,0.751003
1333721427788,0.748796
1333721487788,0.752053
1333721547788,0.748506
1333721607788,0.749729
1333721667788,0.749276
1333721727788,0.749901
1333721787788,0.747651
1333721847788,0.750584
1333721907788,0.752990
1333721967788,0.752934
1333722027788,0.748630
1333722087788,0.753186
1333722147788,0.744573
1333722207788,0.747757
1333722267788,0.750843
1333722327788,0.749729
1333722387788,0.747471
1333722447788,0.752771
1333722507788,0.748119
1333722567788,0.750454
1333722627788,0.752661
1333722687788,0.741672
1333722747788,0.740165
1333722807788,0.747960
1333722867788,0.750872
1333722927788,0.746006
1333722987788,0.746558
1333723047788,0.754063
1333723107788,0.749112
1333723167788,0.743622
1333723227788,0.754962
1333723287788,0.749723
1333723347788,0.749125
1333723407788,0.753691
1333723467788,0.756676
1333723527788,0.752599
1333723587788,0.755692
1333723647788,0.748614
1333723707788,0.753379
1333723767788,0.756703
1333723827788,0.754460
1333723887788,0.762008
1333723947788,0.750896
1333724007788,0.750088
1333724067788,0.750110
1333724127788,0.757840
1333724187788,0.760178
1333724247788,0.759180
1333724307788,0.758738
1333724367788,0.749338
1333724427799,0.754279
1333724487799,0.751090
1333724547799,0.751655
1333724607799,0.747598
1333724667799,0.751192
1333724727799,0.751748
1333724787799,0.751992
1333724847799,0.753553
1333724907799,0.747943
1333724967799,0.754074
1333725027799,0.743824
1333725087799,0.748486
1333725147799,0.743377
1333725207799,0.753717
1333725267799,0.759116
1333725327799,0.748252
1333725387799,0.751444
1333725447799,0.753572
1333725507799,0.747602
1333725567799,0.748734
1333725627799,0.757671
1333725687799,0.750543
1333725747799,0.755559
1333725807799,0.754271
1333725867799,0.759930
1333725927799,0.755919
1333725987799,0.755602
1333726047799,0.755957
1333726107799,0.763318
1333726167799,0.763174
1333726227799,0.756684
1333726287799,0.759796
1333726347799,0.762018
1333726407799,0.759664
1333726467799,0.755394
1333726527799,0.760099
1333726587799,0.762029
1333726647799,0.755420
1333726707799,0.756573
1333726767799,0.760385
1333726827799,0.758464
1333726887799,0.754452
1333726947799,0.751163
1333727007799,0.762718
1333727067799,0.755730
1333727127799,0.758726
1333727187799,0.760397
1333727247799,0.761371
1333727307799,0.757661
1333727367799,0.759983
1333727427799,0.750623
1333727487799,0.755981
1333727547799,0.756674
1333727607799,0.757531
1333727667799,0.756970
1333727727799,0.753138
1333727787799,0.756941
1333727847799,0.751933
1333727907799,0.757255
1333727967799,0.757086
1333728027810,0.750994
1333728087810,0.757998
1333728147810,0.751548
1333728207810,0.754734
1333728267810,0.759080
1333728327810,0.751667
1333728387810,0.759012
1333728447810,0.762508
1333728507810,0.762724
1333728567810,0.759327
1333728627810,0.764975
1333728687810,0.765476
1333728747810,0.763216
1333728807810,0.760471
1333728867810,0.759805
1333728927810,0.757272
1333728987810,0.762510
1333729047810,0.761440
1333729107810,0.759195
1333729167810,0.760995
1333729227810,0.760112
1333729287810,0.760400
1333729347810,0.759206
1333729407810,0.755346
1333729467810,0.762225
1333729527810,0.763547
1333729587810,0.758076
1333729647810,0.762394
1333729707810,0.757879
1333729767810,0.756505
1333729827810,0.758799
1333729887810,0.754485
1333729947810,0.756382
1333730007810,0.761110
1333730067810,0.754733
1333730127810,0.755295
1333730187810,0.753392
1333730247810,0.756576
1333730307810,0.760711
1333730367810,0.755360
1333730427810,0.754511
1333730487810,0.754971
1333730547810,0.754922
1333730607810,0.749499
1333730667810,0.750585
1333730727810,0.748501
1333730787810,0.752498
1333730847810,0.754598
1333730907810,0.755457
1333730967810,0.755308
1333731027810,0.754535
1333731087810,0.751084
1333731147810,0.751408
1333731207810,0.748169
1333731267810,0.750043
1333731327810,0.752519
1333731387810,0.749667
1333731447810,0.746028
1333731507810,0.749783
1333731567810,0.744593
1333731627821,0.748398
1333731687821,0.752653
1333731747821,0.753913
1333731807821,0.746699
1333731867821,0.756146
1333731927821,0.751522
1333731987821,0.753870
1333732047821,0.747797
1333732107821,0.748289
1333732167821,0.750386
1333732227821,0.751586
1333732287821,0.749177
1333732347821,0.749645
1333732407821,0.751085
1333732467821,0.747867
1333732527821,0.741675
1333732587821,0.753730
1333732647821,0.746752
1333732707821,0.746318
1333732767821,0.744989
1333732827821,0.747875
1333732887821,0.745991
1333732947821,0.750944
1333733007821,0.750577
1333733067821,0.745524
1333733127821,0.741238
1333733187821,0.750965
1333733247821,0.752872
1333733307821,0.745666
1333733367821,0.748344
1333733427821,0.741839